Richmond, VA

12:11 AM EST on December 10, 2019 (GMT -0500)
Richmond International

Weather History for KRIC - October, 2019

Change the Weather History Date:

Sunday, October 20, 2019

  Actual Average Record
Temperature  
Mean Temperature 58 °F 58 °F  
Max Temperature 62 °F 70 °F 89 °F (1984)
Min Temperature 55 °F 47 °F 27 °F (1940)
Degree Days  
Heating Degree Days 6 8  
Month to date heating degree days 67 105  
Since 1 July heating degree days 67 134  
Cooling Degree Days 0 1  
Month to date cooling degree days 70 33  
Year to date cooling degree days 2040 1537  
Growing Degree Days 8 (Base 50)    
Moisture  
Dew Point 56 °F    
Average Humidity 94    
Maximum Humidity 100    
Minimum Humidity 77    
Precipitation  
Precipitation 1.59 in 0.09 in 4.76 in (1961)
Month to date precipitation 3.61 1.91  
Year to date precipitation 36.76 36.03  
Snow  
Snow 0.00 in 0.00 in 0.00 in (2002)
Month to date snowfall 0.0 0.0  
Since 1 July snowfall 0.0 0.0  
Snow Depth 0.00 in    
Sea Level Pressure  
Sea Level Pressure 29.84 in    
Wind  
Wind Speed 10 mph ()    
Max Wind Speed 24 mph    
Max Gust Speed 32 mph    
Visibility 5.0 miles    
Events Rain    
T = Trace of Precipitation, MM = Missing Value Source: Averaged Metar Reports

Daily Weather History Graph

Daily Weather History Graph

Search for Another Location

Airport or City:

Astronomy

Oct. 20, 2019 Rise Set
Actual Time 7:21 AM EDT 6:25 PM EDT
Civil Twilight 6:55 AM EDT 6:52 PM EDT
Nautical Twilight 6:24 AM EDT 7:22 PM EDT
Astronomical Twilight 5:54 AM EDT 7:52 PM EDT
Moon 11:37 PM EDT (10/20) 1:43 PM EDT (10/20)
Length of Visible Light 11h 56m
Length of Day
11h 03m
Waning Gibbous, 59% of the Moon is Illuminated
Oct 20
Waning Gibbous
Oct 21
Last Quarter
Oct 27
New
Nov 4
First Quarter
Nov 12
Full

Hourly Weather History & Observations

Time (EDT) Temp. Dew Point Humidity Pressure Visibility Wind Dir Wind Speed Gust Speed Precip Events Conditions
12:54 AM 55.9 °F 50.0 °F 80% 30.01 in 10.0 mi Calm Calm - N/A   Overcast
1:54 AM 57.0 °F 50.0 °F 77% 29.99 in 10.0 mi Calm Calm - N/A   Overcast
2:54 AM 57.0 °F 51.1 °F 81% 29.97 in 10.0 mi Calm Calm - N/A   Overcast
3:54 AM 55.0 °F 52.0 °F 89% 29.93 in 10.0 mi NNE 5.8 mph - 0.00 in Rain Light Rain
5:03 AM 55.0 °F 53.1 °F 93% 29.90 in 4.0 mi NNE 6.9 mph - 0.02 in Rain Rain
5:23 AM 55.0 °F 53.1 °F 93% 29.90 in 8.0 mi NE 8.1 mph - 0.04 in Rain Light Rain
5:54 AM 55.0 °F 54.0 °F 96% 29.90 in 4.0 mi NE 10.4 mph - 0.07 in Rain Light Rain
6:40 AM 57.0 °F 55.0 °F 93% 29.87 in 5.0 mi NE 11.5 mph - 0.03 in Rain Light Rain
6:54 AM 57.0 °F 55.9 °F 96% 29.89 in 5.0 mi ENE 10.4 mph - 0.04 in Rain Rain
7:01 AM 57.0 °F 55.9 °F 96% 29.88 in 3.0 mi ENE 11.5 mph - 0.03 in Rain Heavy Rain
7:21 AM 57.0 °F 55.9 °F 96% 29.86 in 2.0 mi NE 12.7 mph - 0.14 in Rain Heavy Rain
7:39 AM 57.0 °F 55.9 °F 96% 29.85 in 3.0 mi NE 13.8 mph 21.9 mph 0.27 in Rain Rain
7:51 AM 57.2 °F 57.2 °F 100% 29.84 in 4.0 mi NE 15.0 mph - 0.31 in Rain Rain
7:54 AM 57.9 °F 57.0 °F 97% 29.86 in 4.0 mi NE 15.0 mph - 0.31 in Rain Rain
8:06 AM 57.9 °F 57.0 °F 97% 29.83 in 1.8 mi NE 15.0 mph - 0.06 in Rain Heavy Rain
8:18 AM 57.9 °F 57.0 °F 97% 29.83 in 2.5 mi NE 15.0 mph - 0.15 in Rain Rain
8:28 AM 57.9 °F 57.0 °F 97% 29.83 in 1.5 mi NE 15.0 mph - 0.21 in Rain Heavy Rain
8:48 AM 57.2 °F 57.2 °F 100% 29.81 in 2.5 mi NNE 15.0 mph 26.5 mph 0.42 in Rain Rain
8:54 AM 57.9 °F 57.0 °F 97% 29.82 in 3.0 mi NE 17.3 mph - 0.44 in Rain Rain
9:21 AM 59.0 °F 57.9 °F 96% 29.80 in 2.5 mi NE 19.6 mph 24.2 mph 0.08 in Rain Rain
9:54 AM 59.0 °F 57.9 °F 96% 29.81 in 2.5 mi NE 13.8 mph - 0.19 in Rain Rain
10:12 AM 60.1 °F 57.9 °F 93% 29.78 in 5.0 mi NE 16.1 mph - 0.06 in Rain Light Rain
10:54 AM 60.1 °F 59.0 °F 96% 29.77 in 3.0 mi NE 16.1 mph - 0.21 in Rain Rain
11:54 AM 61.0 °F 60.1 °F 97% 29.76 in 7.0 mi NNE 13.8 mph - 0.12 in Rain Light Rain
12:54 PM 62.1 °F 61.0 °F 96% 29.72 in 4.0 mi NNE 13.8 mph - 0.08 in Rain Light Rain
1:54 PM 61.0 °F 60.1 °F 97% 29.71 in 4.0 mi North 18.4 mph - 0.03 in Rain Light Rain
2:54 PM 61.0 °F 59.0 °F 93% 29.71 in 3.0 mi North 21.9 mph 28.8 mph 0.00 in   Light Drizzle
3:10 PM 61.0 °F 59.0 °F 93% 29.70 in 2.5 mi North 19.6 mph 27.6 mph 0.00 in   Light Drizzle
3:54 PM 60.1 °F 57.9 °F 93% 29.74 in 2.0 mi North 17.3 mph 27.6 mph 0.00 in   Light Drizzle
4:38 PM 59.0 °F 57.0 °F 93% 29.75 in 1.5 mi North 18.4 mph - 0.00 in   Light Drizzle
4:54 PM 57.9 °F 57.0 °F 97% 29.77 in 1.2 mi North 18.4 mph 26.5 mph 0.00 in   Light Drizzle
5:29 PM 57.9 °F 55.9 °F 93% 29.77 in 2.5 mi North 20.7 mph 25.3 mph 0.00 in   Light Drizzle
5:42 PM 57.9 °F 55.9 °F 93% 29.77 in 3.0 mi North 19.6 mph 26.5 mph 0.00 in   Light Drizzle
5:54 PM 57.0 °F 55.9 °F 96% 29.80 in 3.0 mi North 18.4 mph 28.8 mph 0.00 in   Light Drizzle
6:54 PM 57.0 °F 55.0 °F 93% 29.83 in 6.0 mi North 19.6 mph - 0.00 in   Overcast
7:54 PM 57.0 °F 55.0 °F 93% 29.85 in 10.0 mi North 18.4 mph 28.8 mph N/A   Overcast
8:54 PM 57.0 °F 55.0 °F 93% 29.88 in 10.0 mi North 12.7 mph - 0.00 in   Overcast
9:54 PM 57.0 °F 55.0 °F 93% 29.91 in 10.0 mi North 15.0 mph - N/A   Overcast
10:54 PM 57.0 °F 55.0 °F 93% 29.94 in 10.0 mi North 17.3 mph 25.3 mph N/A   Overcast
11:18 PM 57.0 °F 55.0 °F 93% 29.94 in 10.0 mi NNW 16.1 mph - N/A   Overcast
11:54 PM 57.0 °F 54.0 °F 89% 29.96 in 7.0 mi NNW 13.8 mph - 0.00 in   Light Drizzle